Marshfield, WI

6:36 PM CDT on September 21, 2017 (GMT -0500)
Marshfield Municipal

Weather History for KMFI - July, 2013

Change the Weather History Date:

Friday, July 5, 2013

  Actual Average Record
Temperature  
Mean Temperature 70 °F -  
Max Temperature 84 °F 80 °F 96 °F (1988)
Min Temperature 57 °F 55 °F 41 °F (1967)
Cooling Degree Days 4    
Growing Degree Days 20 (Base 50)    
Moisture  
Dew Point 59 °F    
Average Humidity 66    
Maximum Humidity 93    
Minimum Humidity 41    
Precipitation  
Precipitation 0.00 in - - ()
Sea Level Pressure  
Sea Level Pressure 29.98 in    
Wind  
Wind Speed 7 mph (SSW)    
Max Wind Speed 16 mph    
Max Gust Speed 22 mph    
Visibility 10 miles    
Events      
Averages and records for this station are not official NWS values.
T = Trace of Precipitation, MM = Missing Value Source: NWS Daily Summary

Daily Weather History Graph

Daily Weather History Graph

Search for Another Location

Airport or City:

Trip Planner

Search our weather history database for the weather conditions in past years. The results will help you decide how hot, cold, wet, or windy it might be!

Date:

Astronomy

Jul. 05, 2013 Rise Set
Actual Time 5:21 AM CDT 8:48 PM CDT
Civil Twilight 4:45 AM CDT 9:25 PM CDT
Nautical Twilight 3:57 AM CDT 10:12 PM CDT
Astronomical Twilight 2:56 AM CDT 11:13 PM CDT
Moon 3:23 AM CDT (7/5) 6:41 PM CDT (7/5)
Length of Visible Light 16h 39m
Length of Day
15h 26m
Waning Crescent, 6% of the Moon is Illuminated
Jul 5
Waning Crescent
Jul 8
New
Jul 15
First Quarter
Jul 22
Full
Jul 29
Last Quarter

Hourly Weather History & Observations

Time (CDT) Temp. Heat Index Dew Point Humidity Pressure Visibility Wind Dir Wind Speed Gust Speed Precip Events Conditions
12:54 AM 63.0 °F - 57.9 °F 84% 30.00 in 10.0 mi South 5.8 mph - N/A   Clear
1:54 AM 62.1 °F - 57.0 °F 84% 30.00 in 10.0 mi South 4.6 mph - N/A   Clear
2:54 AM 61.0 °F - 57.0 °F 87% 29.99 in 10.0 mi South 3.5 mph - N/A   Clear
3:54 AM 59.0 °F - 57.0 °F 93% 29.99 in 10.0 mi South 5.8 mph - N/A   Clear
4:54 AM 57.9 °F - 55.9 °F 93% 30.00 in 9.0 mi South 3.5 mph - N/A   Clear
5:54 AM 59.0 °F - 57.0 °F 93% 30.01 in 7.0 mi South 4.6 mph - N/A   Clear
6:54 AM 62.1 °F - 60.1 °F 93% 30.01 in 9.0 mi South 3.5 mph - N/A   Clear
7:54 AM 68.0 °F - 61.0 °F 78% 30.01 in 10.0 mi South 6.9 mph - N/A   Clear
8:54 AM 73.0 °F - 61.0 °F 66% 30.02 in 10.0 mi Variable 6.9 mph - N/A   Clear
9:54 AM 75.9 °F - 61.0 °F 60% 30.02 in 10.0 mi South 9.2 mph - N/A   Clear
10:54 AM 78.1 °F - 60.1 °F 54% 30.01 in 10.0 mi SW 10.4 mph 19.6 mph N/A   Clear
11:54 AM 81.0 °F 81.6 °F 60.1 °F 49% 29.99 in 10.0 mi SW 9.2 mph - N/A   Partly Cloudy
12:54 PM 81.0 °F 81.3 °F 59.0 °F 47% 29.98 in 10.0 mi SW 11.5 mph - N/A   Partly Cloudy
1:54 PM 82.9 °F 82.8 °F 59.0 °F 44% 29.97 in 10.0 mi South 12.7 mph 18.4 mph N/A   Scattered Clouds
2:54 PM 82.9 °F 82.6 °F 57.9 °F 42% 29.96 in 10.0 mi SSW 11.5 mph - N/A   Mostly Cloudy
3:54 PM 82.9 °F 82.4 °F 57.0 °F 41% 29.96 in 10.0 mi SSW 16.1 mph 20.7 mph N/A   Clear
4:54 PM 82.9 °F 82.6 °F 57.9 °F 42% 29.95 in 10.0 mi South 16.1 mph 21.9 mph N/A   Clear
5:54 PM 82.0 °F 82.0 °F 57.9 °F 44% 29.94 in 10.0 mi SSW 11.5 mph 20.7 mph N/A   Clear
6:54 PM 80.1 °F 80.7 °F 59.0 °F 48% 29.94 in 10.0 mi SSW 12.7 mph - N/A   Clear
7:54 PM 77.0 °F - 59.0 °F 54% 29.95 in 10.0 mi SSW 6.9 mph - N/A   Clear
8:54 PM 72.0 °F - 61.0 °F 68% 29.95 in 10.0 mi South 6.9 mph - N/A   Clear
9:54 PM 69.1 °F - 61.0 °F 75% 29.96 in 10.0 mi South 6.9 mph - N/A   Clear
10:54 PM 69.1 °F - 61.0 °F 75% 29.96 in 10.0 mi South 8.1 mph - N/A   Clear
11:54 PM 68.0 °F - 61.0 °F 78% 29.97 in 10.0 mi South 5.8 mph - N/A   Clear